Miscellaneous Local Product
Issued by NWS North Platte, NE

Home | Current Version | Previous Version | Text Only | Print | Product List | Glossary On
Versions: 1 2 3 4 5 6 7 8 9 10 11 12 13 14 15 16 17 18 19 20 21 22 23 24 25 26 27 28 29 30 31 32 33 34 35 36 37 38 39 40 41 42 43 44 45 46 47 48 49 50
178
AXUS43 KLBF 290310
MISLBF


WESTERN AND NORTH CENTRAL NEBRASKA HOURLY WEATHER ROUNDUP
NATIONAL WEATHER SERVICE NORTH PLATTE NE
1000 PM CDT FRI APR 28 2017

NOTE: "FAIR" INDICATES FEW OR NO CLOUDS BELOW 12,000 FEET WITH NO
SIGNIFICANT WEATHER AND/OR OBSTRUCTIONS TO VISIBILITY.

NOTE: STATIONS NOT REPORTING VARIABLES SUCH AS SKY/WEATHER OR
PRESSURE ARE PROVIDED BY RAWS AND APRS NETWORKS AND ARE NOT UNDER
NATIONAL WEATHER SERVICE QUALITY CONTROL.

...OBSERVATIONS IN AND NEAR THE EASTERN PANHANDLE OF NEBRASKA...

CITY           SKY/WX    TMP DP  RH WIND       PRES   REMARKS
PINE RIDGE     CLOUDY    39  29  67 N6        30.13R WCI  35
CHADRON        CLOUDY    39  29  67 N8        30.13R WCI  33
ALLIANCE       CLOUDY    34  32  92 N3        30.09R
SIDNEY         FRZ RAIN  33  31  92 N10       30.09R FOG     WCI  25
CRESCENT LAKE    N/A     33  33 100 NE9G16      N/A  WCI  25
$$

...OBSERVATIONS IN NORTHERN NEBRASKA AND FAR SOUTHERN SOUTH DAKOTA...

CITY           SKY/WX    TMP DP  RH WIND       PRES   REMARKS
WINNER         FAIR      45  25  45 NE8       30.11R
VALENTINE      CLOUDY    44  26  49 N8        30.08R
THEDFORD       CLOUDY    40  33  76 CALM      30.09R
AINSWORTH      CLOUDY    42  31  65 NE6       30.08R
O`NEILL        CLOUDY    43  29  58 NE8       30.07R
ORD            CLOUDY    40  34  79 NW3       30.05R
BROKEN BOW     CLOUDY    39  34  82 NE8       30.04R WCI  33
VALENTINE NWR    N/A     42  28  58 NE6         N/A
HALSEY           N/A     38  31  75 CALM        N/A
BUTTE            N/A     42  29  59 CALM        N/A
CHAMBERS         N/A     42  32  67 CALM        N/A
EWING            N/A     41  35  79 CALM        N/A
$$

...OBSERVATIONS IN SOUTHWEST NEBRASKA AND FAR NORTHEAST COLORADO...

CITY           SKY/WX    TMP DP  RH WIND       PRES   REMARKS
HOLYOKE        CLOUDY    37  34  87 NE13      30.07R WCI  29
IMPERIAL       CLOUDY    36  32  85 NE16      30.07R WCI  26
OGALLALA       CLOUDY    37  34  87 N10       30.08R WCI  30
NORTH PLATTE   CLOUDY    38  34  85 NE10      30.07R WCI  31
MCCOOK         CLOUDY    38  34  85 NE14      30.06R WCI  30
LEXINGTON      CLOUDY    37  34  86 NE13      30.04S WCI  29
STAPLETON        N/A     35  33  93 CALM        N/A
GOTHENBURG       N/A     37  30  77 N8          N/A  WCI  31
CALLAWAY         N/A     35  33  93 NE3         N/A
$$

...OBSERVATIONS IN CENTRAL LINCOLN COUNTY AREA...

CITY           SKY/WX    TMP DP  RH WIND       PRES   REMARKS
N.P. AIRPORT   CLOUDY    38  34  85 NE10      30.07R WCI  31
N.P. DOWNTOWN    N/A     37  33  87 NE3         N/A
N.P. SOUTHEAST   N/A     37  33  86 CALM        N/A
N.P. HILLCREST   N/A     37  34  88 NE6         N/A  WCI  32
$$

...SOME OBSERVATIONS FROM AROUND THE REGION...

CITY           SKY/WX    TMP DP  RH WIND       PRES   REMARKS
DENVER         LGT SNOW  31  29  92 NE23G31   30.00R FOG     WCI  18
LIMON          FLURRIES  30  30 100 NE22      29.94S WCI  17
ASPEN          CLOUDY    33  22  63 CALM      29.81R
LARAMIE        CLOUDY    23  19  85 E18G28    30.01R WCI   9
CASPER         LGT SNOW  29  27  92 NE13      30.13R FOG     WCI  19
CHEYENNE       CLOUDY    27  25  92 NE12      30.07R FOG     WCI  17
SCOTTSBLUFF    CLOUDY    34  32  92 N5        30.13R WCI  30
GRAND ISLAND   CLOUDY    39  38  96 N9        30.04R WCI  33
OMAHA          CLOUDY    43  37  79 N8        30.03R
SIOUX FALLS    CLOUDY    42  28  57 N9        30.10R
PIERRE         MOCLDY    43  18  36 NE5       30.14R
RAPID CITY     CLOUDY    36  28  73 NE6       30.15R WCI  31
BISMARCK       CLEAR     49  18  29 NE5       30.16R
KANSAS CITY    DRZL/FOG  45  44  97 N10       29.94R VSB 1/2
HILL CITY      CLOUDY    39  36  89 NE14      30.04R WCI  31
WICHITA        CLOUDY    54  48  80 N23G29    29.84R
DODGE CITY     LGT RAIN  43  42  97 N21       29.90R FOG
OKLAHOMA CITY  CLOUDY    70  62  76 E13       29.67R
DALLAS         CLOUDY    83  72  69 SE14      29.58R
AMARILLO       CLOUDY    47  45  93 N24       29.78R
$$




USA.gov is the U.S. government's official web portal to all federal, state and local government web resources and services.